TimeCET,TemperatureF,Dew PointF,Humidity,Sea Level PressureIn,VisibilityMPH,Wind Direction,Wind SpeedMPH,Gust SpeedMPH,PrecipitationIn,Events,Conditions,WindDirDegrees,DateUTC
12:25 AM,42.8,37.4,81,29.80,6.2,SW,12.7,-,N/A,,Partly Cloudy,230,2013-02-04 23:25:00
12:55 AM,42.8,37.4,81,29.80,6.2,SW,15.0,-,N/A,,Overcast,230,2013-02-04 23:55:00
1:00 AM,42,38,79,29.81,8,SW,15.7,,,,Partly Cloudy,230,2013-02-05 00:00:00
1:25 AM,42.8,37.4,81,29.77,6.2,SW,16.1,-,N/A,,Unknown,230,2013-02-05 00:25:00
1:55 AM,41.0,35.6,81,29.77,6.2,SW,15.0,-,N/A,,Unknown,230,2013-02-05 00:55:00
2:25 AM,41.0,35.6,81,29.74,6.2,SW,16.1,-,N/A,,Partly Cloudy,230,2013-02-05 01:25:00
2:55 AM,42.8,37.4,81,29.74,6.2,SW,18.4,-,N/A,,Mostly Cloudy,230,2013-02-05 01:55:00
3:25 AM,41.0,35.6,81,29.71,6.2,SW,19.6,-,N/A,,Partly Cloudy,230,2013-02-05 02:25:00
3:55 AM,41.0,35.6,81,29.68,6.2,SW,18.4,-,N/A,,Partly Cloudy,230,2013-02-05 02:55:00
4:00 AM,41,36,74,29.71,10,SW,17.9,,,,Mostly Cloudy,230,2013-02-05 03:00:00
4:55 AM,41.0,35.6,81,29.65,6.2,SW,21.9,-,N/A,,Mostly Cloudy,220,2013-02-05 03:55:00
5:25 AM,41.0,35.6,81,29.62,6.2,SW,21.9,-,N/A,,Scattered Clouds,220,2013-02-05 04:25:00
5:55 AM,41.0,35.6,81,29.56,6.2,SSW,20.7,-,N/A,,Scattered Clouds,210,2013-02-05 04:55:00
6:25 AM,41.0,35.6,81,29.56,6.2,SW,24.2,-,N/A,,Mostly Cloudy,220,2013-02-05 05:25:00
6:55 AM,41.0,37.4,87,29.53,6.2,SW,24.2,-,N/A,,Heavy Drizzle,220,2013-02-05 05:55:00
7:00 AM,40,37,87,29.56,5,SW,22.4,,,Rain,Light Rain Showers,220,2013-02-05 06:00:00
7:25 AM,39.2,37.4,93,29.50,5.6,SW,26.5,41.4,N/A,Rain,Light Rain Showers,220,2013-02-05 06:25:00
7:55 AM,37.4,35.6,93,29.53,6.2,WSW,12.7,-,N/A,,Light Drizzle,250,2013-02-05 06:55:00
8:25 AM,35.6,33.8,93,29.53,6.2,SW,18.4,-,N/A,,Mostly Cloudy,230,2013-02-05 07:25:00
9:55 AM,37.4,33.8,87,29.56,6.2,WSW,16.1,27.6,N/A,,Scattered Clouds,240,2013-02-05 08:55:00
10:00 AM,37,33,81,29.58,28,WSW,15.7,,,,Partly Cloudy,240,2013-02-05 09:00:00
10:25 AM,39.2,33.8,81,29.56,6.2,WSW,17.3,-,N/A,,Mostly Cloudy,240,2013-02-05 09:25:00
10:55 AM,39.2,33.8,81,29.56,6.2,West,11.5,24.2,N/A,,Mostly Cloudy,260,2013-02-05 09:55:00
11:25 AM,35.6,32.0,87,29.56,6.2,NW,11.5,-,N/A,,Overcast,310,2013-02-05 10:25:00
11:55 AM,39.2,30.2,70,29.56,6.2,West,13.8,25.3,N/A,,Partly Cloudy,260,2013-02-05 10:55:00
12:25 PM,39.2,30.2,70,29.56,6.2,WSW,12.7,-,N/A,,Partly Cloudy,250,2013-02-05 11:25:00
12:55 PM,41.0,32.0,70,29.53,6.2,WSW,13.8,26.5,N/A,,Scattered Clouds,250,2013-02-05 11:55:00
1:00 PM,41,29,52,29.56,22,WSW,15.7,,,,Unknown,250,2013-02-05 12:00:00
1:25 PM,41.0,28.4,61,29.53,6.2,WSW,16.1,33.4,N/A,,Partly Cloudy,250,2013-02-05 12:25:00
2:25 PM,39.2,26.6,61,29.50,6.2,West,10.4,-,N/A,,Scattered Clouds,260,2013-02-05 13:25:00
2:55 PM,39.2,28.4,65,29.50,6.2,WSW,12.7,-,N/A,,Scattered Clouds,240,2013-02-05 13:55:00
3:25 PM,39.2,26.6,61,29.50,6.2,WSW,12.7,-,N/A,,Unknown,240,2013-02-05 14:25:00
3:55 PM,39.2,28.4,65,29.47,6.2,WSW,11.5,-,N/A,,Unknown,240,2013-02-05 14:55:00
4:00 PM,38,31,66,29.50,25,WSW,11.2,,,,Overcast,240,2013-02-05 15:00:00
4:25 PM,37.4,32.0,81,29.47,6.2,SW,17.3,-,N/A,,Unknown,220,2013-02-05 15:25:00
4:55 PM,35.6,32.0,87,29.47,6.2,SW,15.0,-,N/A,,Partly Cloudy,230,2013-02-05 15:55:00
5:25 PM,35.6,30.2,81,29.47,6.2,SW,15.0,-,N/A,,Partly Cloudy,230,2013-02-05 16:25:00
5:55 PM,35.6,32.0,87,29.47,6.2,SW,13.8,-,N/A,,Scattered Clouds,230,2013-02-05 16:55:00
6:25 PM,33.8,32.0,93,29.47,6.2,SW,10.4,-,N/A,,Scattered Clouds,220,2013-02-05 17:25:00
6:55 PM,33.8,32.0,93,29.47,6.2,SW,15.0,-,N/A,,Overcast,220,2013-02-05 17:55:00
7:00 PM,34,33,92,29.50,10,SW,13.4,,,Snow,Light Snow Showers,220,2013-02-05 18:00:00
7:25 PM,33.8,32.0,93,29.47,6.2,SW,12.7,-,N/A,,Partly Cloudy,220,2013-02-05 18:25:00
7:55 PM,33.8,32.0,93,29.47,6.2,SSW,11.5,-,N/A,,Overcast,210,2013-02-05 18:55:00
8:25 PM,33.8,32.0,93,29.47,6.2,SSW,11.5,-,N/A,,Scattered Clouds,210,2013-02-05 19:25:00
8:55 PM,33.8,32.0,93,29.47,6.2,SSW,12.7,-,N/A,,Unknown,210,2013-02-05 19:55:00
9:25 PM,33.8,32.0,93,29.47,6.2,SSW,15.0,-,N/A,,Unknown,210,2013-02-05 20:25:00
9:55 PM,33.8,30.2,87,29.44,6.2,SSW,12.7,-,N/A,,Unknown,210,2013-02-05 20:55:00
10:00 PM,33,31,89,29.49,17,SSW,13.4,,,,Partly Cloudy,200,2013-02-05 21:00:00
10:25 PM,33.8,30.2,87,29.44,6.2,SSW,13.8,-,N/A,,Unknown,210,2013-02-05 21:25:00
10:55 PM,33.8,30.2,87,29.44,6.2,SSW,16.1,-,N/A,,Unknown,210,2013-02-05 21:55:00
11:25 PM,33.8,30.2,87,29.44,6.2,SSW,16.1,-,N/A,,Partly Cloudy,200,2013-02-05 22:25:00